Location: Hilton Head Island
(32.2163°N, 80.7526°W)
Time: 12:13:09
(UTC-04:00)

S-56A Canister/Altair - Pass Details

Date: 23 February 2026
Orbit: 633 x 2484 km, 38.9° (Epoch: 10 March)

Event Time Altitude Azimuth Distance (km) Brightness Sun altitude
Exits shadow 03:00:43 30° 115° (ESE) 2,711 10.3 -49.8°
Drops below altitude 10° 03:05:55 10° 116° (ESE) 4,330 11.6 -48.9°
Sets 03:09:59 0° 116° (ESE) 5,581 12.3 -48.1°
